Radiation Dose at Monitoring Post of Fukushima Daini Nuclear Power Station
Date,Time,MP-1(microSv/h),MP-2(microSv/h),MP-3(microSv/h),MP-4(microSv/h),MP-5(microSv/h),MP-6(microSv/h),MP-7(microSv/h),Wind Direction,Wind Velocity(m/s),Rain
2020/02/03,00:00,0.181,0.163,0.273,0.254,0.253,0.139,0.086,north,1.6,No
2020/02/03,00:10,0.180,0.162,0.273,0.255,0.252,0.139,0.086,north-northwest,2.2,No
2020/02/03,00:20,0.180,0.162,0.274,0.254,0.253,0.138,0.086,north-northwest,2.0,No
2020/02/03,00:30,0.180,0.163,0.273,0.254,0.254,0.138,0.085,north-northwest,1.3,No
2020/02/03,00:40,0.182,0.162,0.272,0.255,0.254,0.139,0.087,north-northwest,0.9,No
2020/02/03,00:50,0.180,0.163,0.273,0.255,0.252,0.138,0.086,west-northwest,0.9,No
2020/02/03,01:00,0.182,0.162,0.274,0.255,0.252,0.138,0.085,-,CALM,No
2020/02/03,01:10,0.181,0.163,0.274,0.255,0.252,0.138,0.086,south-southeast,0.6,No
2020/02/03,01:20,0.181,0.163,0.273,0.255,0.253,0.139,0.086,south-southeast,0.8,No
2020/02/03,01:30,0.181,0.163,0.273,0.255,0.252,0.139,0.086,south,1.0,No
2020/02/03,01:40,0.181,0.163,0.274,0.255,0.253,0.139,0.086,east-southeast,1.8,No
2020/02/03,01:50,0.180,0.163,0.274,0.255,0.253,0.139,0.086,east,1.1,No
2020/02/03,02:00,0.179,0.162,0.274,0.255,0.252,0.140,0.086,east-northeast,1.3,No
2020/02/03,02:10,0.180,0.163,0.273,0.255,0.252,0.139,0.086,east,1.2,No
2020/02/03,02:20,0.181,0.163,0.274,0.255,0.253,0.138,0.085,east,0.9,No
2020/02/03,02:30,0.181,0.163,0.273,0.255,0.252,0.139,0.086,east,1.1,No
2020/02/03,02:40,0.180,0.163,0.273,0.254,0.252,0.138,0.085,east-northeast,1.4,No
2020/02/03,02:50,0.181,0.163,0.274,0.254,0.254,0.139,0.086,east,0.6,No
2020/02/03,03:00,0.181,0.164,0.273,0.255,0.252,0.139,0.086,south-southeast,0.6,No
2020/02/03,03:10,0.182,0.162,0.274,0.256,0.252,0.139,0.087,southeast,1.0,No
2020/02/03,03:20,0.181,0.163,0.274,0.255,0.252,0.139,0.086,south-southeast,1.0,No
2020/02/03,03:30,0.181,0.163,0.274,0.254,0.253,0.138,0.086,south-southwest,0.9,No
2020/02/03,03:40,0.181,0.162,0.273,0.255,0.253,0.139,0.086,south-southeast,0.7,No
2020/02/03,03:50,0.181,0.163,0.272,0.255,0.254,0.139,0.087,south,0.7,No
2020/02/03,04:00,0.181,0.163,0.273,0.255,0.252,0.139,0.086,-,CALM,No
2020/02/03,04:10,0.180,0.164,0.274,0.254,0.254,0.139,0.086,southwest,0.6,No
2020/02/03,04:20,0.181,0.163,0.273,0.254,0.253,0.140,0.086,west-southwest,1.5,No
2020/02/03,04:30,0.181,0.164,0.275,0.255,0.252,0.139,0.087,west-southwest,1.5,No
2020/02/03,04:40,0.181,0.163,0.276,0.255,0.253,0.139,0.085,west-southwest,1.6,No
2020/02/03,04:50,0.181,0.163,0.275,0.253,0.253,0.139,0.086,south-southwest,1.7,No
2020/02/03,05:00,0.180,0.163,0.275,0.253,0.252,0.138,0.086,south-southwest,1.5,No
2020/02/03,05:10,0.181,0.163,0.274,0.254,0.252,0.138,0.086,southwest,1.6,No
2020/02/03,05:20,0.181,0.161,0.274,0.254,0.252,0.140,0.086,west-southwest,1.8,No
2020/02/03,05:30,0.181,0.162,0.274,0.255,0.254,0.138,0.086,southwest,1.3,No
2020/02/03,05:40,0.180,0.162,0.275,0.254,0.252,0.138,0.087,southwest,1.8,No
2020/02/03,05:50,0.181,0.163,0.273,0.254,0.252,0.139,0.086,southwest,1.9,No
2020/02/03,06:00,0.180,0.164,0.274,0.254,0.252,0.139,0.086,southwest,2.1,No
2020/02/03,06:10,0.181,0.162,0.273,0.255,0.253,0.139,0.086,southwest,2.2,No
2020/02/03,06:20,0.181,0.162,0.273,0.255,0.252,0.139,0.086,south-southwest,2.6,No
2020/02/03,06:30,0.180,0.163,0.273,0.255,0.252,0.139,0.086,south-southwest,3.2,No
2020/02/03,06:40,0.181,0.163,0.274,0.253,0.252,0.138,0.086,south-southwest,3.2,No
2020/02/03,06:50,0.181,0.163,0.274,0.256,0.252,0.139,0.086,south,3.0,No
2020/02/03,07:00,0.181,0.162,0.273,0.254,0.252,0.139,0.085,south-southwest,2.3,No
2020/02/03,07:10,0.180,0.162,0.273,0.255,0.253,0.139,0.086,south,2.5,No
2020/02/03,07:20,0.181,0.163,0.274,0.254,0.251,0.139,0.087,south,2.8,No
2020/02/03,07:30,0.180,0.163,0.273,0.254,0.252,0.139,0.086,south,2.8,No
2020/02/03,07:40,0.181,0.163,0.273,0.254,0.252,0.139,0.086,south,3.1,No
2020/02/03,07:50,0.182,0.162,0.272,0.253,0.251,0.138,0.086,south,2.6,No
2020/02/03,08:00,0.180,0.163,0.273,0.254,0.252,0.139,0.085,south,3.0,No
2020/02/03,08:10,0.180,0.163,0.274,0.255,0.253,0.138,0.086,south,2.9,No
2020/02/03,08:20,0.182,0.163,0.273,0.254,0.253,0.139,0.086,south-southwest,2.6,No
2020/02/03,08:30,0.182,0.163,0.272,0.254,0.252,0.138,0.087,south,2.4,No
2020/02/03,08:40,0.180,0.163,0.273,0.254,0.253,0.139,0.086,southwest,1.8,No
2020/02/03,08:50,0.182,0.163,0.273,0.255,0.254,0.139,0.085,south-southwest,3.1,No
2020/02/03,09:00,0.181,0.162,0.273,0.253,0.252,0.139,0.086,south-southwest,3.7,No
2020/02/03,09:10,0.181,0.162,0.272,0.254,0.253,0.139,0.086,south-southwest,2.3,No
2020/02/03,09:20,0.181,0.163,0.274,0.255,0.254,0.139,0.086,south-southwest,3.0,No
2020/02/03,09:30,0.180,0.163,0.273,0.254,0.253,0.139,0.086,south,3.4,Yes
2020/02/03,09:40,0.181,0.163,0.272,0.255,0.254,0.140,0.086,south-southwest,2.9,No
2020/02/03,09:50,0.180,0.163,0.274,0.254,0.254,0.139,0.086,south-southwest,2.7,No
2020/02/03,10:00,0.181,0.164,0.273,0.253,0.253,0.139,0.086,south-southeast,1.9,No
2020/02/03,10:10,0.180,0.163,0.274,0.255,0.254,0.140,0.086,south-southeast,2.1,No
2020/02/03,10:20,0.180,0.163,0.275,0.255,0.253,0.139,0.086,south,2.6,No
2020/02/03,10:30,0.181,0.163,0.273,0.254,0.253,0.139,0.086,south,3.0,No
2020/02/03,10:40,0.180,0.163,0.273,0.255,0.252,0.140,0.086,south,3.8,No
2020/02/03,10:50,0.181,0.163,0.273,0.254,0.252,0.138,0.086,south,4.0,No
2020/02/03,11:00,0.179,0.163,0.273,0.254,0.252,0.138,0.085,south-southwest,6.3,No
2020/02/03,11:10,0.180,0.163,0.272,0.255,0.252,0.138,0.086,south,6.1,No
2020/02/03,11:20,0.179,0.162,0.273,0.253,0.253,0.137,0.085,south,7.3,No
2020/02/03,11:30,0.180,0.163,0.272,0.255,0.250,0.138,0.085,south-southwest,7.6,No
2020/02/03,11:40,0.179,0.162,0.273,0.253,0.252,0.138,0.086,south-southwest,7.3,No
2020/02/03,11:50,0.179,0.162,0.272,0.255,0.251,0.138,0.086,south,7.4,No
2020/02/03,12:00,0.179,0.162,0.273,0.254,0.252,0.138,0.085,south-southwest,6.3,No
2020/02/03,12:10,0.179,0.163,0.273,0.253,0.252,0.138,0.085,south,5.5,No
2020/02/03,12:20,0.181,0.163,0.273,0.255,0.253,0.139,0.086,south,5.6,No
2020/02/03,12:30,0.179,0.162,0.273,0.253,0.252,0.139,0.085,south,5.2,No
2020/02/03,12:40,0.181,0.163,0.272,0.255,0.253,0.139,0.085,south,4.6,No
2020/02/03,12:50,0.180,0.162,0.274,0.254,0.252,0.139,0.085,south,5.0,No
2020/02/03,13:00,0.181,0.162,0.272,0.254,0.253,0.139,0.085,south,6.6,No
2020/02/03,13:10,0.179,0.163,0.273,0.255,0.252,0.139,0.086,south,6.3,No
2020/02/03,13:20,0.180,0.162,0.272,0.255,0.253,0.137,0.085,south,5.9,No
2020/02/03,13:30,0.178,0.162,0.272,0.252,0.252,0.139,0.086,south,5.9,No
2020/02/03,13:40,0.179,0.162,0.271,0.255,0.252,0.138,0.086,south,5.4,No
2020/02/03,13:50,0.180,0.163,0.273,0.252,0.252,0.139,0.085,south,5.8,No
2020/02/03,14:00,0.179,0.162,0.272,0.255,0.253,0.138,0.085,south,5.5,No
2020/02/03,14:10,0.180,0.163,0.273,0.252,0.251,0.139,0.085,south,5.7,No
2020/02/03,14:20,0.179,0.162,0.272,0.255,0.252,0.138,0.085,south,6.2,No
2020/02/03,14:30,0.180,0.163,0.271,0.253,0.250,0.139,0.085,south-southeast,6.6,No
2020/02/03,14:40,0.180,0.161,0.273,0.255,0.253,0.138,0.085,south-southeast,5.4,No
2020/02/03,14:50,0.182,0.163,0.272,0.254,0.252,0.138,0.086,south-southeast,7.7,No
2020/02/03,15:00,0.180,0.162,0.273,0.254,0.253,0.138,0.086,south-southeast,7.0,No
2020/02/03,15:10,0.179,0.162,0.272,0.255,0.252,0.139,0.086,south-southeast,7.0,No
2020/02/03,15:20,0.181,0.163,0.274,0.253,0.253,0.138,0.084,south,5.3,No
2020/02/03,15:30,0.180,0.162,0.273,0.255,0.255,0.140,0.086,south,6.6,No
2020/02/03,15:40,0.181,0.163,0.271,0.254,0.252,0.138,0.086,south,6.1,No
2020/02/03,15:50,0.179,0.162,0.274,0.255,0.253,0.138,0.086,south,4.8,No
2020/02/03,16:00,0.180,0.162,0.272,0.255,0.252,0.138,0.085,south-southwest,4.5,No
2020/02/03,16:10,0.179,0.163,0.273,0.254,0.254,0.139,0.085,south-southwest,3.5,No
2020/02/03,16:20,0.179,0.162,0.274,0.256,0.252,0.139,0.086,south-southwest,3.3,No
2020/02/03,16:30,0.179,0.163,0.272,0.253,0.253,0.139,0.085,west-southwest,1.8,No
2020/02/03,16:40,0.181,0.162,0.274,0.253,0.254,0.139,0.085,west-northwest,4.5,No
2020/02/03,16:50,0.179,0.163,0.273,0.256,0.251,0.139,0.086,west-northwest,7.8,No
2020/02/03,17:00,0.180,0.163,0.273,0.256,0.254,0.140,0.086,west,7.1,No
2020/02/03,17:10,0.180,0.163,0.273,0.254,0.255,0.138,0.085,west-northwest,4.5,No
2020/02/03,17:20,0.179,0.163,0.274,0.256,0.253,0.139,0.086,west-northwest,4.1,No
2020/02/03,17:30,0.180,0.163,0.272,0.255,0.254,0.139,0.086,west,2.8,No
2020/02/03,17:40,0.181,0.163,0.274,0.255,0.252,0.139,0.086,west,4.1,No
2020/02/03,17:50,0.180,0.162,0.274,0.257,0.252,0.140,0.085,west,10.7,No
2020/02/03,18:00,0.180,0.163,0.274,0.255,0.254,0.140,0.086,west,11.7,No
2020/02/03,18:10,0.181,0.162,0.274,0.255,0.253,0.139,0.085,west,11.7,No
2020/02/03,18:20,0.180,0.163,0.274,0.255,0.252,0.140,0.086,west,10.1,No
2020/02/03,18:30,0.182,0.163,0.273,0.255,0.254,0.139,0.086,west,8.7,No
2020/02/03,18:40,0.182,0.163,0.274,0.255,0.253,0.139,0.085,west,7.8,No
2020/02/03,18:50,0.179,0.163,0.274,0.254,0.252,0.140,0.086,west,9.2,No
2020/02/03,19:00,0.180,0.163,0.274,0.255,0.254,0.139,0.086,west-northwest,10.9,No
2020/02/03,19:10,0.180,0.162,0.273,0.254,0.252,0.139,0.085,west-northwest,10.6,No
2020/02/03,19:20,0.180,0.162,0.274,0.255,0.252,0.140,0.085,west,11.7,No
2020/02/03,19:30,0.181,0.163,0.274,0.256,0.254,0.139,0.085,west,10.6,No
2020/02/03,19:40,0.181,0.164,0.274,0.254,0.253,0.139,0.086,west,12.5,No
2020/02/03,19:50,0.180,0.163,0.275,0.255,0.252,0.139,0.086,west-northwest,11.2,No
2020/02/03,20:00,0.180,0.162,0.274,0.255,0.254,0.139,0.086,west,13.7,No
2020/02/03,20:10,0.181,0.163,0.274,0.254,0.254,0.139,0.086,west,15.6,No
2020/02/03,20:20,0.180,0.162,0.275,0.256,0.253,0.140,0.086,west,11.7,No
2020/02/03,20:30,0.180,0.163,0.276,0.256,0.254,0.140,0.085,west,12.0,No
2020/02/03,20:40,0.181,0.163,0.275,0.256,0.253,0.139,0.086,west,12.9,No
2020/02/03,20:50,0.182,0.163,0.277,0.256,0.256,0.140,0.086,west,12.3,No
2020/02/03,21:00,0.180,0.163,0.275,0.256,0.254,0.140,0.086,west-northwest,13.3,No
2020/02/03,21:10,0.181,0.163,0.275,0.256,0.254,0.139,0.086,west-northwest,12.3,No
2020/02/03,21:20,0.181,0.163,0.275,0.255,0.254,0.140,0.086,west,11.2,No
2020/02/03,21:30,0.181,0.163,0.275,0.256,0.253,0.139,0.086,west-northwest,8.7,No
2020/02/03,21:40,0.182,0.164,0.276,0.255,0.254,0.140,0.086,west,9.5,No
2020/02/03,21:50,0.182,0.163,0.274,0.256,0.253,0.139,0.085,west-northwest,11.4,No
2020/02/03,22:00,0.181,0.163,0.274,0.255,0.253,0.139,0.086,west-northwest,9.5,No
2020/02/03,22:10,0.181,0.162,0.276,0.256,0.253,0.140,0.086,west-northwest,7.8,No
2020/02/03,22:20,0.181,0.163,0.275,0.256,0.253,0.139,0.086,west-northwest,10.0,No
2020/02/03,22:30,0.180,0.163,0.276,0.254,0.253,0.140,0.086,west-northwest,12.8,No
2020/02/03,22:40,0.180,0.162,0.274,0.256,0.252,0.140,0.087,west-northwest,11.7,No
2020/02/03,22:50,0.181,0.164,0.277,0.255,0.255,0.140,0.086,west-northwest,6.4,No
2020/02/03,23:00,0.181,0.164,0.275,0.257,0.254,0.140,0.086,northwest,4.3,No
2020/02/03,23:10,0.180,0.164,0.274,0.256,0.255,0.140,0.087,northwest,4.7,No
2020/02/03,23:20,0.182,0.163,0.275,0.255,0.252,0.140,0.086,northwest,7.1,No
2020/02/03,23:30,0.181,0.162,0.275,0.255,0.253,0.139,0.086,west-northwest,6.2,No
2020/02/03,23:40,0.182,0.164,0.274,0.256,0.252,0.139,0.086,west-northwest,6.6,No
2020/02/03,23:50,0.181,0.165,0.274,0.256,0.253,0.140,0.086,west-northwest,6.5,No
